Time,TemperatureF,DewpointF,PressureIn,WindDirection,WindDirectionDegrees,WindSpeedMPH,WindSpeedGustMPH,Humidity,HourlyPrecipIn,Conditions,Clouds,dailyrainin,SoftwareType,DateUTC
2013-06-15 00:01:00,79.7,55.9,28.29,WSW,244,3.1,3.6,44,0.00,,---,0.00,VWS V14.01,2013-06-15 05:01:00,
2013-06-15 00:06:00,79.7,55.9,28.29,SSE,166,0.0,6.7,44,0.00,,---,0.00,VWS V14.01,2013-06-15 05:06:00,
2013-06-15 00:12:00,79.5,56.3,28.29,South,187,2.7,6.7,45,0.00,,---,0.00,VWS V14.01,2013-06-15 05:12:00,
2013-06-15 00:17:00,79.3,56.2,28.29,South,186,3.1,6.7,45,0.00,,---,0.00,VWS V14.01,2013-06-15 05:17:00,
2013-06-15 00:22:00,79.3,56.8,28.32,WSW,242,2.7,6.7,46,0.00,,---,0.00,VWS V14.01,2013-06-15 05:22:00,
2013-06-15 00:27:00,79.2,56.6,28.32,WSW,258,0.0,6.7,46,0.00,,---,0.00,VWS V14.01,2013-06-15 05:27:00,
2013-06-15 00:32:00,79.2,56.6,28.32,West,272,0.0,6.7,46,0.00,,---,0.00,VWS V14.01,2013-06-15 05:32:00,
2013-06-15 00:37:00,78.6,56.7,28.32,North,353,0.0,6.7,47,0.00,,---,0.00,VWS V14.01,2013-06-15 05:37:00,
2013-06-15 00:42:00,78.4,56.6,28.32,North,353,0.0,6.7,47,0.00,,---,0.00,VWS V14.01,2013-06-15 05:42:00,
2013-06-15 00:47:00,78.1,56.2,28.32,North,353,0.0,6.7,47,0.00,,---,0.00,VWS V14.01,2013-06-15 05:47:00,
2013-06-15 00:52:00,77.9,56.7,28.32,North,353,0.0,6.7,48,0.00,,---,0.00,VWS V14.01,2013-06-15 05:52:00,
2013-06-15 00:58:00,77.5,56.3,28.32,North,353,0.0,6.7,48,0.00,,---,0.00,VWS V14.01,2013-06-15 05:58:00,
2013-06-15 01:03:00,77.4,56.7,28.32,North,353,0.0,0.0,49,0.00,,---,0.00,VWS V14.01,2013-06-15 06:03:00,
2013-06-15 01:08:00,77.2,57.7,28.32,North,353,0.0,0.0,51,0.00,,---,0.00,VWS V14.01,2013-06-15 06:08:00,
2013-06-15 01:13:00,76.8,57.3,28.32,North,353,0.0,0.0,51,0.00,,---,0.00,VWS V14.01,2013-06-15 06:13:00,
2013-06-15 01:18:00,76.5,57.0,28.32,North,353,0.0,0.0,51,0.00,,---,0.00,VWS V14.01,2013-06-15 06:18:00,
2013-06-15 01:23:00,76.3,57.4,28.32,North,353,0.0,0.0,52,0.00,,---,0.00,VWS V14.01,2013-06-15 06:23:00,
2013-06-15 01:28:00,76.1,57.2,28.32,North,353,0.0,0.0,52,0.00,,---,0.00,VWS V14.01,2013-06-15 06:28:00,
2013-06-15 01:33:00,76.1,57.8,28.32,North,353,0.0,0.0,53,0.00,,---,0.00,VWS V14.01,2013-06-15 06:33:00,
2013-06-15 01:38:00,76.3,57.9,28.32,WNW,297,2.2,3.1,53,0.00,,---,0.00,VWS V14.01,2013-06-15 06:38:00,
2013-06-15 01:43:00,76.6,57.7,28.32,WNW,294,0.0,4.0,52,0.00,,---,0.00,VWS V14.01,2013-06-15 06:43:00,
2013-06-15 01:48:00,77.0,57.5,28.32,WNW,294,0.0,4.0,51,0.00,,---,0.00,VWS V14.01,2013-06-15 06:48:00,
2013-06-15 01:54:00,77.2,57.1,28.32,WNW,294,0.0,4.0,50,0.00,,---,0.00,VWS V14.01,2013-06-15 06:54:00,
2013-06-15 01:59:00,77.2,57.1,28.32,WNW,294,0.0,4.0,50,0.00,,---,0.00,VWS V14.01,2013-06-15 06:59:00,
2013-06-15 02:04:00,77.0,57.0,28.32,WNW,294,0.0,0.0,50,0.00,,---,0.00,VWS V14.01,2013-06-15 07:04:00,
2013-06-15 02:09:00,76.6,56.6,28.32,WNW,294,0.0,0.0,50,0.00,,---,0.00,VWS V14.01,2013-06-15 07:09:00,
2013-06-15 02:14:00,76.3,56.8,28.32,WNW,294,0.0,0.0,51,0.00,,---,0.00,VWS V14.01,2013-06-15 07:14:00,
2013-06-15 02:19:00,75.9,56.5,28.32,WNW,294,0.0,0.0,51,0.00,,---,0.00,VWS V14.01,2013-06-15 07:19:00,
2013-06-15 02:24:00,75.6,56.7,28.32,WNW,294,0.0,0.0,52,0.00,,---,0.00,VWS V14.01,2013-06-15 07:24:00,
2013-06-15 02:29:00,75.2,56.9,28.32,WNW,294,0.0,0.0,53,0.00,,---,0.00,VWS V14.01,2013-06-15 07:29:00,
2013-06-15 02:34:00,74.8,57.1,28.32,WNW,294,0.0,0.0,54,0.00,,---,0.00,VWS V14.01,2013-06-15 07:34:00,
2013-06-15 02:39:00,74.7,57.4,28.32,WNW,294,0.0,0.0,55,0.00,,---,0.00,VWS V14.01,2013-06-15 07:39:00,
2013-06-15 02:45:00,74.5,57.3,28.32,SSE,153,3.1,5.4,55,0.00,,---,0.00,VWS V14.01,2013-06-15 07:45:00,
2013-06-15 02:50:00,74.5,57.8,28.32,SSE,153,0.0,5.4,56,0.00,,---,0.00,VWS V14.01,2013-06-15 07:50:00,
2013-06-15 02:55:00,74.3,57.6,28.32,SSE,153,0.0,5.4,56,0.00,,---,0.00,VWS V14.01,2013-06-15 07:55:00,
2013-06-15 03:00:00,74.1,57.4,28.32,SSE,153,0.0,0.0,56,0.00,,---,0.00,VWS V14.01,2013-06-15 08:00:00,
2013-06-15 03:05:00,74.1,57.4,28.32,SSE,153,0.0,0.0,56,0.00,,---,0.00,VWS V14.01,2013-06-15 08:05:00,
2013-06-15 03:10:00,74.1,57.9,28.32,SSE,153,0.0,3.6,57,0.00,,---,0.00,VWS V14.01,2013-06-15 08:10:00,
2013-06-15 03:15:00,73.9,57.8,28.32,SSE,153,0.0,3.6,57,0.00,,---,0.00,VWS V14.01,2013-06-15 08:15:00,
2013-06-15 03:21:00,73.8,57.6,28.32,SSE,153,0.0,3.6,57,0.00,,---,0.00,VWS V14.01,2013-06-15 08:21:00,
2013-06-15 03:26:00,73.6,57.4,28.32,SSE,153,0.0,3.6,57,0.00,,---,0.00,VWS V14.01,2013-06-15 08:26:00,
2013-06-15 03:31:00,73.4,57.7,28.32,SE,128,0.0,3.6,58,0.00,,---,0.00,VWS V14.01,2013-06-15 08:31:00,
2013-06-15 03:36:00,73.0,57.4,28.32,SE,128,0.0,3.6,58,0.00,,---,0.00,VWS V14.01,2013-06-15 08:36:00,
2013-06-15 03:41:00,72.9,57.7,28.32,SE,128,0.0,3.6,59,0.00,,---,0.00,VWS V14.01,2013-06-15 08:41:00,
2013-06-15 03:46:00,72.7,57.5,28.32,SSE,155,3.1,3.6,59,0.00,,---,0.00,VWS V14.01,2013-06-15 08:46:00,
2013-06-15 03:51:00,72.7,57.5,28.32,SSE,166,0.0,3.6,59,0.00,,---,0.00,VWS V14.01,2013-06-15 08:51:00,
2013-06-15 03:56:00,72.7,58.0,28.32,SSW,200,2.2,3.6,60,0.00,,---,0.00,VWS V14.01,2013-06-15 08:56:00,
2013-06-15 04:01:00,72.7,58.0,28.32,East,89,2.2,2.2,60,0.00,,---,0.00,VWS V14.01,2013-06-15 09:01:00,
2013-06-15 04:06:00,72.7,58.0,28.32,South,186,2.7,2.7,60,0.00,,---,0.00,VWS V14.01,2013-06-15 09:06:00,
2013-06-15 04:12:00,72.5,57.8,28.32,SSE,166,3.1,4.0,60,0.00,,---,0.00,VWS V14.01,2013-06-15 09:12:00,
2013-06-15 04:17:00,72.5,58.3,28.32,ESE,120,3.6,4.0,61,0.00,,---,0.00,VWS V14.01,2013-06-15 09:17:00,
2013-06-15 04:22:00,72.5,58.3,28.32,SSE,152,4.0,4.0,61,0.00,,---,0.00,VWS V14.01,2013-06-15 09:22:00,
2013-06-15 04:27:00,72.3,58.1,28.32,ESE,120,3.1,5.8,61,0.00,,---,0.00,VWS V14.01,2013-06-15 09:27:00,
2013-06-15 04:32:00,72.5,58.3,28.32,SSE,156,0.0,5.8,61,0.00,,---,0.00,VWS V14.01,2013-06-15 09:32:00,
2013-06-15 04:37:00,72.5,58.3,28.32,ESE,123,3.1,5.8,61,0.00,,---,0.00,VWS V14.01,2013-06-15 09:37:00,
2013-06-15 04:42:00,72.5,58.3,28.32,SW,233,2.7,5.8,61,0.00,,---,0.00,VWS V14.01,2013-06-15 09:42:00,
2013-06-15 04:47:00,72.3,58.6,28.32,SSE,154,2.2,5.8,62,0.00,,---,0.00,VWS V14.01,2013-06-15 09:47:00,
2013-06-15 04:52:00,72.3,58.6,28.32,South,171,0.0,5.8,62,0.00,,---,0.00,VWS V14.01,2013-06-15 09:52:00,
2013-06-15 04:58:00,72.3,58.6,28.32,SE,136,2.2,5.8,62,0.00,,---,0.00,VWS V14.01,2013-06-15 09:58:00,
2013-06-15 05:03:00,72.1,58.4,28.32,SSE,165,2.2,4.9,62,0.00,,---,0.00,VWS V14.01,2013-06-15 10:03:00,
2013-06-15 05:08:00,72.1,58.9,28.35,South,173,3.1,4.9,63,0.00,,---,0.00,VWS V14.01,2013-06-15 10:08:00,
2013-06-15 05:13:00,72.3,59.0,28.35,SSE,166,3.6,5.4,63,0.00,,---,0.00,VWS V14.01,2013-06-15 10:13:00,
2013-06-15 05:18:00,72.3,58.6,28.35,SSE,152,3.1,5.4,62,0.00,,---,0.00,VWS V14.01,2013-06-15 10:18:00,
2013-06-15 05:23:00,72.5,58.8,28.35,SE,143,0.0,5.4,62,0.00,,---,0.00,VWS V14.01,2013-06-15 10:23:00,
2013-06-15 05:28:00,72.7,58.9,28.35,SE,144,3.1,5.4,62,0.00,,---,0.00,VWS V14.01,2013-06-15 10:28:00,
2013-06-15 05:33:00,72.7,58.5,28.35,SSE,149,0.0,5.4,61,0.00,,---,0.00,VWS V14.01,2013-06-15 10:33:00,
2013-06-15 05:38:00,72.7,58.5,28.35,SSE,155,2.7,5.4,61,0.00,,---,0.00,VWS V14.01,2013-06-15 10:38:00,
2013-06-15 05:44:00,72.5,58.3,28.35,South,172,2.7,5.4,61,0.00,,---,0.00,VWS V14.01,2013-06-15 10:44:00,
2013-06-15 05:49:00,72.5,58.8,28.35,WSW,241,0.0,5.4,62,0.00,,---,0.00,VWS V14.01,2013-06-15 10:49:00,
2013-06-15 05:54:00,72.3,58.6,28.35,WSW,241,0.0,5.4,62,0.00,,---,0.00,VWS V14.01,2013-06-15 10:54:00,
2013-06-15 05:59:00,72.3,58.6,28.35,WSW,246,0.0,5.4,62,0.00,,---,0.00,VWS V14.01,2013-06-15 10:59:00,
2013-06-15 06:04:00,72.1,58.4,28.35,South,178,0.0,3.1,62,0.00,,---,0.00,VWS V14.01,2013-06-15 11:04:00,
2013-06-15 06:09:00,72.0,58.7,28.35,South,187,2.2,3.1,63,0.00,,---,0.00,VWS V14.01,2013-06-15 11:09:00,
2013-06-15 06:14:00,72.0,58.7,28.35,South,171,0.0,3.1,63,0.00,,---,0.00,VWS V14.01,2013-06-15 11:14:00,
2013-06-15 06:19:00,72.0,58.7,28.35,South,171,0.0,3.1,63,0.00,,---,0.00,VWS V14.01,2013-06-15 11:19:00,
2013-06-15 06:24:00,72.0,58.7,28.35,South,181,0.0,3.1,63,0.00,,---,0.00,VWS V14.01,2013-06-15 11:24:00,
2013-06-15 06:29:00,72.1,58.9,28.35,SW,225,0.0,3.1,63,0.00,,---,0.00,VWS V14.01,2013-06-15 11:29:00,
2013-06-15 06:34:00,72.1,58.9,28.35,SSW,205,2.2,3.1,63,0.00,,---,0.00,VWS V14.01,2013-06-15 11:34:00,
2013-06-15 06:40:00,72.1,58.9,28.38,South,189,0.0,3.1,63,0.00,,---,0.00,VWS V14.01,2013-06-15 11:40:00,
2013-06-15 06:45:00,72.1,59.3,28.38,South,189,0.0,3.1,64,0.00,,---,0.00,VWS V14.01,2013-06-15 11:45:00,
2013-06-15 06:50:00,72.0,59.1,28.38,South,183,0.0,3.1,64,0.00,,---,0.00,VWS V14.01,2013-06-15 11:50:00,
2013-06-15 06:55:00,72.0,59.1,28.38,South,183,0.0,3.1,64,0.00,,---,0.00,VWS V14.01,2013-06-15 11:55:00,
2013-06-15 07:00:00,72.0,59.1,28.38,South,183,0.0,0.0,64,0.00,,---,0.00,VWS V14.01,2013-06-15 12:00:00,
2013-06-15 07:05:00,72.1,59.7,28.38,South,183,0.0,0.0,65,0.00,,---,0.00,VWS V14.01,2013-06-15 12:05:00,
2013-06-15 07:10:00,72.3,59.9,28.38,South,182,0.0,0.0,65,0.00,,---,0.00,VWS V14.01,2013-06-15 12:10:00,
2013-06-15 07:15:00,72.3,59.9,28.38,SSW,197,0.0,3.1,65,0.00,,---,0.00,VWS V14.01,2013-06-15 12:15:00,
2013-06-15 07:20:00,72.5,60.1,28.38,SSE,164,0.0,3.1,65,0.00,,---,0.00,VWS V14.01,2013-06-15 12:20:00,
2013-06-15 07:25:00,72.7,60.2,28.38,South,187,0.0,3.1,65,0.00,,---,0.00,VWS V14.01,2013-06-15 12:25:00,
2013-06-15 07:31:00,72.9,60.4,28.38,South,187,0.0,3.1,65,0.00,,---,0.00,VWS V14.01,2013-06-15 12:31:00,
2013-06-15 07:36:00,72.9,60.4,28.38,South,187,0.0,3.1,65,0.00,,---,0.00,VWS V14.01,2013-06-15 12:36:00,
2013-06-15 07:41:00,73.0,60.6,28.38,South,186,0.0,3.1,65,0.00,,---,0.00,VWS V14.01,2013-06-15 12:41:00,
2013-06-15 07:46:00,73.2,60.8,28.38,South,186,0.0,3.1,65,0.00,,---,0.00,VWS V14.01,2013-06-15 12:46:00,
2013-06-15 07:51:00,73.6,61.1,28.38,South,186,0.0,3.1,65,0.00,,---,0.00,VWS V14.01,2013-06-15 12:51:00,
2013-06-15 07:56:00,73.8,61.3,28.38,South,186,0.0,3.1,65,0.00,,---,0.00,VWS V14.01,2013-06-15 12:56:00,
2013-06-15 08:01:00,74.1,61.2,28.38,SSW,195,0.0,2.7,64,0.00,,---,0.00,VWS V14.01,2013-06-15 13:01:00,
2013-06-15 08:06:00,74.5,61.5,28.38,SSW,195,0.0,2.7,64,0.00,,---,0.00,VWS V14.01,2013-06-15 13:06:00,
2013-06-15 08:11:00,74.7,61.7,28.38,South,172,0.0,3.1,64,0.00,,---,0.00,VWS V14.01,2013-06-15 13:11:00,
2013-06-15 08:16:00,74.7,61.2,28.38,WSW,240,0.0,3.6,63,0.00,,---,0.00,VWS V14.01,2013-06-15 13:16:00,
2013-06-15 08:21:00,74.8,61.4,28.38,WSW,240,0.0,3.6,63,0.00,,---,0.00,VWS V14.01,2013-06-15 13:21:00,
2013-06-15 08:27:00,75.0,61.6,28.38,WSW,240,0.0,3.6,63,0.00,,---,0.00,VWS V14.01,2013-06-15 13:27:00,
2013-06-15 08:32:00,75.0,61.6,28.38,WSW,251,2.7,3.6,63,0.00,,---,0.00,VWS V14.01,2013-06-15 13:32:00,
2013-06-15 08:37:00,75.2,61.3,28.38,South,179,0.0,3.6,62,0.00,,---,0.00,VWS V14.01,2013-06-15 13:37:00,
2013-06-15 08:42:00,75.2,61.3,28.38,South,179,0.0,3.6,62,0.00,,---,0.00,VWS V14.01,2013-06-15 13:42:00,
2013-06-15 08:47:00,75.4,61.5,28.38,South,179,0.0,3.6,62,0.00,,---,0.00,VWS V14.01,2013-06-15 13:47:00,
2013-06-15 08:52:00,75.6,61.2,28.38,WSW,258,0.0,4.0,61,0.00,,---,0.00,VWS V14.01,2013-06-15 13:52:00,
2013-06-15 08:57:00,75.7,60.9,28.38,WSW,254,0.0,5.4,60,0.00,,---,0.00,VWS V14.01,2013-06-15 13:57:00,
2013-06-15 09:02:00,75.9,61.0,28.38,WSW,254,0.0,0.0,60,0.00,,---,0.00,VWS V14.01,2013-06-15 14:02:00,
2013-06-15 09:07:00,76.1,61.2,28.38,WSW,254,0.0,0.0,60,0.00,,---,0.00,VWS V14.01,2013-06-15 14:07:00,
2013-06-15 09:12:00,76.3,61.4,28.38,WSW,254,0.0,0.0,60,0.00,,---,0.00,VWS V14.01,2013-06-15 14:12:00,
2013-06-15 09:18:00,76.6,61.7,28.38,SE,146,0.0,4.0,60,0.00,,---,0.00,VWS V14.01,2013-06-15 14:18:00,
2013-06-15 09:23:00,77.0,61.6,28.38,SE,146,0.0,4.0,59,0.00,,---,0.00,VWS V14.01,2013-06-15 14:23:00,
2013-06-15 09:28:00,77.4,61.9,28.38,South,179,0.0,4.0,59,0.00,,---,0.00,VWS V14.01,2013-06-15 14:28:00,
2013-06-15 09:33:00,77.7,62.3,28.38,SSE,168,0.0,4.0,59,0.00,,---,0.00,VWS V14.01,2013-06-15 14:33:00,
2013-06-15 09:38:00,77.9,61.5,28.38,WSW,244,4.0,4.0,57,0.00,,---,0.00,VWS V14.01,2013-06-15 14:38:00,
2013-06-15 09:43:00,77.9,61.5,28.38,SSE,168,3.1,4.0,57,0.00,,---,0.00,VWS V14.01,2013-06-15 14:43:00,
2013-06-15 09:48:00,77.9,61.0,28.38,SSE,168,0.0,4.0,56,0.00,,---,0.00,VWS V14.01,2013-06-15 14:48:00,
2013-06-15 09:53:00,77.9,61.0,28.38,SW,214,0.0,4.0,56,0.00,,---,0.00,VWS V14.01,2013-06-15 14:53:00,
2013-06-15 09:58:00,77.9,61.5,28.38,SW,226,0.0,4.0,57,0.00,,---,0.00,VWS V14.01,2013-06-15 14:58:00,
2013-06-15 10:03:00,77.9,61.5,28.38,SW,226,0.0,0.0,57,0.00,,---,0.00,VWS V14.01,2013-06-15 15:03:00,
2013-06-15 10:09:00,77.9,61.5,28.38,SW,226,0.0,0.0,57,0.00,,---,0.00,VWS V14.01,2013-06-15 15:09:00,
2013-06-15 10:14:00,77.9,62.0,28.38,SW,226,0.0,0.0,58,0.00,,---,0.00,VWS V14.01,2013-06-15 15:14:00,
2013-06-15 10:19:00,77.9,62.0,28.38,South,189,2.7,2.7,58,0.00,,---,0.00,VWS V14.01,2013-06-15 15:19:00,
2013-06-15 10:24:00,77.9,61.0,28.38,WSW,243,2.2,4.0,56,0.00,,---,0.00,VWS V14.01,2013-06-15 15:24:00,
2013-06-15 10:29:00,78.1,61.6,28.38,WSW,243,0.0,4.0,57,0.00,,---,0.00,VWS V14.01,2013-06-15 15:29:00,
2013-06-15 10:34:00,78.1,61.1,28.38,WSW,243,2.7,4.5,56,0.00,,---,0.00,VWS V14.01,2013-06-15 15:34:00,
2013-06-15 10:39:00,78.1,61.1,28.38,SW,231,0.0,4.5,56,0.00,,---,0.00,VWS V14.01,2013-06-15 15:39:00,
2013-06-15 10:44:00,78.3,61.8,28.38,SW,232,0.0,4.5,57,0.00,,---,0.00,VWS V14.01,2013-06-15 15:44:00,
2013-06-15 10:49:00,78.1,61.6,28.38,SW,236,0.0,4.5,57,0.00,,---,0.00,VWS V14.01,2013-06-15 15:49:00,
2013-06-15 10:54:00,78.1,61.1,28.38,SW,236,0.0,4.5,56,0.00,,---,0.00,VWS V14.01,2013-06-15 15:54:00,
2013-06-15 10:59:00,78.3,61.8,28.38,SW,236,0.0,4.5,57,0.00,,---,0.00,VWS V14.01,2013-06-15 15:59:00,
2013-06-15 11:05:00,78.4,62.5,28.38,SW,236,0.0,0.0,58,0.00,,---,0.00,VWS V14.01,2013-06-15 16:05:00,
2013-06-15 11:10:00,78.4,62.9,28.38,SW,236,0.0,0.0,59,0.00,,---,0.00,VWS V14.01,2013-06-15 16:10:00,
2013-06-15 11:15:00,78.3,63.2,28.38,SW,236,0.0,0.0,60,0.00,,---,0.00,VWS V14.01,2013-06-15 16:15:00,
2013-06-15 11:20:00,78.1,63.1,28.38,SW,236,0.0,0.0,60,0.00,,---,0.00,VWS V14.01,2013-06-15 16:20:00,
2013-06-15 11:25:00,78.1,63.1,28.38,SW,236,0.0,0.0,60,0.00,,---,0.00,VWS V14.01,2013-06-15 16:25:00,
2013-06-15 11:30:00,78.1,63.1,28.38,SW,236,0.0,0.0,60,0.00,,---,0.00,VWS V14.01,2013-06-15 16:30:00,
2013-06-15 11:35:00,78.1,63.1,28.38,SW,236,0.0,0.0,60,0.00,,---,0.00,VWS V14.01,2013-06-15 16:35:00,
2013-06-15 11:40:00,78.3,63.2,28.38,SW,236,0.0,0.0,60,0.00,,---,0.00,VWS V14.01,2013-06-15 16:40:00,
2013-06-15 11:45:00,78.3,63.7,28.38,SW,236,0.0,0.0,61,0.00,,---,0.00,VWS V14.01,2013-06-15 16:45:00,
2013-06-15 11:50:00,78.1,63.5,28.38,SSW,195,0.0,3.6,61,0.00,,---,0.00,VWS V14.01,2013-06-15 16:50:00,
2013-06-15 11:56:00,77.9,63.4,28.38,SSE,159,0.0,3.6,61,0.00,,---,0.00,VWS V14.01,2013-06-15 16:56:00,
2013-06-15 12:01:00,77.9,63.4,28.38,SSE,159,0.0,0.0,61,0.00,,---,0.00,VWS V14.01,2013-06-15 17:01:00,
2013-06-15 12:06:00,77.7,63.7,28.41,SE,138,2.7,5.4,62,0.00,,---,0.00,VWS V14.01,2013-06-15 17:06:00,
2013-06-15 12:11:00,77.5,64.0,28.41,SSE,151,0.0,5.4,63,0.00,,---,0.00,VWS V14.01,2013-06-15 17:11:00,
2013-06-15 12:16:00,77.4,64.2,28.41,SSE,164,3.6,5.4,64,0.00,,---,0.00,VWS V14.01,2013-06-15 17:16:00,
2013-06-15 12:21:00,77.0,63.9,28.38,SSE,168,3.1,5.4,64,0.00,,---,0.00,VWS V14.01,2013-06-15 17:21:00,
2013-06-15 12:26:00,76.8,63.7,28.38,ESE,118,3.1,5.4,64,0.00,,---,0.00,VWS V14.01,2013-06-15 17:26:00,
2013-06-15 12:31:00,76.6,64.0,28.38,ESE,114,4.0,5.4,65,0.00,,---,0.00,VWS V14.01,2013-06-15 17:31:00,
2013-06-15 12:36:00,76.5,63.8,28.41,SSE,155,0.0,5.4,65,0.00,,---,0.00,VWS V14.01,2013-06-15 17:36:00,
2013-06-15 12:41:00,75.9,63.8,28.41,ESE,122,0.0,5.4,66,0.00,,---,0.00,VWS V14.01,2013-06-15 17:41:00,
2013-06-15 12:47:00,75.4,63.7,28.41,SE,142,0.0,5.4,67,0.00,,---,0.00,VWS V14.01,2013-06-15 17:47:00,
2013-06-15 12:52:00,75.2,63.5,28.38,SW,235,2.7,5.4,67,0.00,,---,0.00,VWS V14.01,2013-06-15 17:52:00,
2013-06-15 12:57:00,75.0,63.8,28.38,NNE,26,3.1,5.4,68,0.00,,---,0.00,VWS V14.01,2013-06-15 17:57:00,
2013-06-15 13:02:00,75.0,63.8,28.38,NNW,335,0.0,2.2,68,0.00,,---,0.00,VWS V14.01,2013-06-15 18:02:00,
2013-06-15 13:07:00,75.0,63.8,28.38,South,171,0.0,2.7,68,0.00,,---,0.00,VWS V14.01,2013-06-15 18:07:00,
2013-06-15 13:12:00,75.0,63.8,28.38,SSE,155,0.0,4.0,68,0.00,,---,0.00,VWS V14.01,2013-06-15 18:12:00,
2013-06-15 13:17:00,75.2,63.9,28.38,SSE,155,0.0,4.0,68,0.00,,---,0.00,VWS V14.01,2013-06-15 18:17:00,
2013-06-15 13:22:00,75.2,63.9,28.38,South,178,2.2,5.4,68,0.00,,---,0.00,VWS V14.01,2013-06-15 18:22:00,
2013-06-15 13:27:00,75.6,64.3,28.38,South,184,3.1,5.4,68,0.00,,---,0.00,VWS V14.01,2013-06-15 18:27:00,
2013-06-15 13:32:00,75.9,65.0,28.38,South,189,3.1,5.4,69,0.00,,---,0.00,VWS V14.01,2013-06-15 18:32:00,
2013-06-15 13:38:00,76.6,65.7,28.35,South,176,3.6,5.4,69,0.00,,---,0.00,VWS V14.01,2013-06-15 18:38:00,
2013-06-15 13:43:00,77.4,66.0,28.35,South,179,4.9,5.4,68,0.00,,---,0.00,VWS V14.01,2013-06-15 18:43:00,
2013-06-15 13:48:00,78.1,65.4,28.35,SE,146,2.7,5.4,65,0.00,,---,0.00,VWS V14.01,2013-06-15 18:48:00,
2013-06-15 13:53:00,78.4,65.7,28.35,South,175,2.7,5.4,65,0.00,,---,0.00,VWS V14.01,2013-06-15 18:53:00,
2013-06-15 13:58:00,78.8,64.7,28.35,SSE,167,2.7,5.4,62,0.00,,---,0.00,VWS V14.01,2013-06-15 18:58:00,
2013-06-15 14:03:00,79.2,64.6,28.35,SE,129,0.0,6.3,61,0.00,,---,0.00,VWS V14.01,2013-06-15 19:03:00,
2013-06-15 14:08:00,79.7,64.6,28.32,SSW,194,0.0,6.3,60,0.00,,---,0.00,VWS V14.01,2013-06-15 19:08:00,
2013-06-15 14:13:00,80.6,65.0,28.32,SSE,165,4.0,6.3,59,0.00,,---,0.00,VWS V14.01,2013-06-15 19:13:00,
2013-06-15 14:18:00,81.1,64.5,28.32,North,0,3.1,6.3,57,0.00,,---,0.00,VWS V14.01,2013-06-15 19:18:00,
2013-06-15 14:23:00,81.7,64.5,28.32,South,175,3.6,6.3,56,0.00,,---,0.00,VWS V14.01,2013-06-15 19:23:00,
2013-06-15 14:28:00,82.4,65.7,28.32,SSE,158,3.1,6.3,57,0.00,,---,0.00,VWS V14.01,2013-06-15 19:28:00,
2013-06-15 14:34:00,83.5,66.2,28.32,South,172,0.0,6.3,56,0.00,,---,0.00,VWS V14.01,2013-06-15 19:34:00,
2013-06-15 14:39:00,84.9,65.3,28.32,SE,133,4.0,6.3,52,0.00,,---,0.00,VWS V14.01,2013-06-15 19:39:00,
2013-06-15 14:44:00,86.4,63.8,28.32,SE,136,6.3,8.1,47,0.00,,---,0.00,VWS V14.01,2013-06-15 19:44:00,
2013-06-15 14:49:00,87.3,61.4,28.32,South,179,5.4,8.1,42,0.00,,---,0.00,VWS V14.01,2013-06-15 19:49:00,
2013-06-15 14:54:00,88.0,61.3,28.32,SE,132,3.1,8.7,41,0.00,,---,0.00,VWS V14.01,2013-06-15 19:54:00,
2013-06-15 14:59:00,88.3,61.0,28.32,SSW,198,3.6,8.7,40,0.00,,---,0.00,VWS V14.01,2013-06-15 19:59:00,
2013-06-15 15:04:00,88.5,60.4,28.32,SSE,153,4.0,9.6,39,0.00,,---,0.00,VWS V14.01,2013-06-15 20:04:00,
2013-06-15 15:09:00,88.7,59.9,28.32,SE,124,3.6,9.6,38,0.00,,---,0.00,VWS V14.01,2013-06-15 20:09:00,
2013-06-15 15:14:00,88.9,60.8,28.32,SE,139,4.9,9.6,39,0.00,,---,0.00,VWS V14.01,2013-06-15 20:14:00,
2013-06-15 15:19:00,89.1,60.9,28.32,SE,134,5.8,9.6,39,0.00,,---,0.00,VWS V14.01,2013-06-15 20:19:00,
2013-06-15 15:25:00,89.2,60.3,28.29,South,172,6.7,9.6,38,0.00,,---,0.00,VWS V14.01,2013-06-15 20:25:00,
2013-06-15 15:30:00,89.4,60.5,28.29,SE,135,6.3,9.6,38,0.00,,---,0.00,VWS V14.01,2013-06-15 20:30:00,
2013-06-15 15:35:00,89.4,59.0,28.29,South,176,3.1,9.6,36,0.00,,---,0.00,VWS V14.01,2013-06-15 20:35:00,
2013-06-15 15:40:00,89.1,56.2,28.29,SSE,157,6.3,10.1,33,0.00,,---,0.00,VWS V14.01,2013-06-15 20:40:00,
2013-06-15 15:45:00,89.1,57.1,28.29,SSW,195,7.6,10.1,34,0.00,,---,0.00,VWS V14.01,2013-06-15 20:45:00,
2013-06-15 15:50:00,89.2,56.4,28.29,SSE,160,3.6,10.1,33,0.00,,---,0.00,VWS V14.01,2013-06-15 20:50:00,
2013-06-15 15:55:00,89.2,56.4,28.29,SE,145,5.8,10.5,33,0.00,,---,0.00,VWS V14.01,2013-06-15 20:55:00,
2013-06-15 16:00:00,89.4,56.6,28.29,ESE,119,3.6,7.6,33,0.00,,---,0.00,VWS V14.01,2013-06-15 21:00:00,
2013-06-15 16:05:00,89.2,56.4,28.29,South,190,4.0,10.5,33,0.00,,---,0.00,VWS V14.01,2013-06-15 21:05:00,
2013-06-15 16:10:00,89.4,56.6,28.29,South,173,5.4,10.5,33,0.00,,---,0.00,VWS V14.01,2013-06-15 21:10:00,
2013-06-15 16:16:00,89.4,56.6,28.29,ENE,77,5.4,10.5,33,0.00,,---,0.00,VWS V14.01,2013-06-15 21:16:00,
2013-06-15 16:21:00,89.6,56.7,28.29,SE,138,3.6,10.5,33,0.00,,---,0.00,VWS V14.01,2013-06-15 21:21:00,
2013-06-15 16:26:00,89.6,57.5,28.26,ESE,103,3.6,10.5,34,0.00,,---,0.00,VWS V14.01,2013-06-15 21:26:00,
2013-06-15 16:31:00,89.8,56.9,28.26,SE,146,2.7,10.5,33,0.00,,---,0.00,VWS V14.01,2013-06-15 21:31:00,
2013-06-15 16:36:00,90.1,57.2,28.26,SE,139,3.1,10.5,33,0.00,,---,0.00,VWS V14.01,2013-06-15 21:36:00,
2013-06-15 16:41:00,90.5,57.5,28.26,SE,138,4.9,10.5,33,0.00,,---,0.00,VWS V14.01,2013-06-15 21:41:00,
2013-06-15 16:46:00,90.5,56.6,28.26,SSE,162,3.1,10.5,32,0.00,,---,0.00,VWS V14.01,2013-06-15 21:46:00,
2013-06-15 16:51:00,90.1,56.3,28.26,SSE,164,4.9,10.5,32,0.00,,---,0.00,VWS V14.01,2013-06-15 21:51:00,
2013-06-15 16:56:00,89.6,55.9,28.26,South,171,7.6,10.5,32,0.00,,---,0.00,VWS V14.01,2013-06-15 21:56:00,
2013-06-15 17:01:00,89.2,57.2,28.26,West,263,3.1,5.8,34,0.00,,---,0.00,VWS V14.01,2013-06-15 22:01:00,
2013-06-15 17:07:00,89.1,56.2,28.26,South,186,4.9,8.3,33,0.00,,---,0.00,VWS V14.01,2013-06-15 22:07:00,
2013-06-15 17:12:00,88.7,57.6,28.26,South,191,4.0,8.3,35,0.00,,---,0.00,VWS V14.01,2013-06-15 22:12:00,
2013-06-15 17:17:00,87.8,60.5,28.26,WNW,295,2.2,8.3,40,0.00,,---,0.00,VWS V14.01,2013-06-15 22:17:00,
2013-06-15 17:22:00,86.5,62.7,28.26,WNW,294,2.2,8.3,45,0.00,,---,0.00,VWS V14.01,2013-06-15 22:22:00,
2013-06-15 17:27:00,84.7,62.9,28.26,South,182,0.0,8.3,48,0.00,,---,0.00,VWS V14.01,2013-06-15 22:27:00,
2013-06-15 17:32:00,83.1,64.8,28.26,South,187,0.0,8.3,54,0.00,,---,0.00,VWS V14.01,2013-06-15 22:32:00,
2013-06-15 17:37:00,82.0,66.8,28.26,South,187,0.0,8.3,60,0.00,,---,0.00,VWS V14.01,2013-06-15 22:37:00,
2013-06-15 17:42:00,81.3,64.7,28.26,SE,129,3.1,8.3,57,0.00,,---,0.00,VWS V14.01,2013-06-15 22:42:00,
2013-06-15 17:48:00,81.3,65.6,28.26,SE,129,0.0,8.3,59,0.00,,---,0.00,VWS V14.01,2013-06-15 22:48:00,
2013-06-15 17:53:00,81.5,67.7,28.26,SSW,209,0.0,8.3,63,0.00,,---,0.00,VWS V14.01,2013-06-15 22:53:00,
2013-06-15 17:58:00,81.9,67.6,28.26,SSW,209,0.0,8.3,62,0.00,,---,0.00,VWS V14.01,2013-06-15 22:58:00,
2013-06-15 18:03:00,82.2,67.4,28.26,SSW,209,0.0,0.0,61,0.00,,---,0.00,VWS V14.01,2013-06-15 23:03:00,
2013-06-15 18:08:00,82.8,67.5,28.23,South,186,0.0,4.0,60,0.00,,---,0.00,VWS V14.01,2013-06-15 23:08:00,
2013-06-15 18:13:00,83.1,66.3,28.23,South,186,0.0,4.0,57,0.00,,---,0.00,VWS V14.01,2013-06-15 23:13:00,
2013-06-15 18:18:00,83.5,65.6,28.23,South,186,0.0,4.0,55,0.00,,---,0.00,VWS V14.01,2013-06-15 23:18:00,
2013-06-15 18:23:00,83.7,65.8,28.23,South,191,0.0,4.0,55,0.00,,---,0.00,VWS V14.01,2013-06-15 23:23:00,
2013-06-15 18:28:00,84.0,65.6,28.23,South,191,0.0,4.0,54,0.00,,---,0.00,VWS V14.01,2013-06-15 23:28:00,
2013-06-15 18:33:00,84.0,65.1,28.23,SSE,152,0.0,5.4,53,0.00,,---,0.00,VWS V14.01,2013-06-15 23:33:00,
2013-06-15 18:38:00,84.0,64.0,28.23,SSE,159,2.7,5.4,51,0.00,,---,0.00,VWS V14.01,2013-06-15 23:38:00,
2013-06-15 18:44:00,83.8,63.8,28.23,SE,142,3.6,5.4,51,0.00,,---,0.00,VWS V14.01,2013-06-15 23:44:00,
2013-06-15 18:49:00,83.7,63.1,28.23,ESE,113,2.7,5.8,50,0.00,,---,0.00,VWS V14.01,2013-06-15 23:49:00,
2013-06-15 18:54:00,83.1,62.6,28.23,South,175,0.0,5.8,50,0.00,,---,0.00,VWS V14.01,2013-06-15 23:54:00,
2013-06-15 18:59:00,82.8,61.7,28.23,SSE,149,3.1,5.8,49,0.00,,---,0.00,VWS V14.01,2013-06-15 23:59:00,
2013-06-15 19:04:00,82.4,61.9,28.23,South,179,2.7,4.0,50,0.00,,---,0.00,VWS V14.01,2013-06-16 00:04:00,
2013-06-15 19:09:00,82.2,62.3,28.23,South,183,0.0,4.0,51,0.00,,---,0.00,VWS V14.01,2013-06-16 00:09:00,
2013-06-15 19:14:00,82.0,62.1,28.23,SE,142,0.0,5.4,51,0.00,,---,0.00,VWS V14.01,2013-06-16 00:14:00,
2013-06-15 19:19:00,81.9,62.5,28.23,SE,142,0.0,5.4,52,0.00,,---,0.00,VWS V14.01,2013-06-16 00:19:00,
2013-06-15 19:24:00,81.5,62.7,28.26,SE,142,4.0,5.4,53,0.00,,---,0.00,VWS V14.01,2013-06-16 00:24:00,
2013-06-15 19:29:00,81.3,62.6,28.26,SE,142,0.0,5.4,53,0.00,,---,0.00,VWS V14.01,2013-06-16 00:29:00,
2013-06-15 19:35:00,81.1,62.4,28.26,South,170,3.1,5.4,53,0.00,,---,0.00,VWS V14.01,2013-06-16 00:35:00,
2013-06-15 19:40:00,81.1,61.9,28.23,SSE,154,3.6,5.4,52,0.00,,---,0.00,VWS V14.01,2013-06-16 00:40:00,
2013-06-15 19:45:00,81.1,61.3,28.23,South,184,0.0,5.4,51,0.00,,---,0.00,VWS V14.01,2013-06-16 00:45:00,
2013-06-15 19:50:00,81.0,61.2,28.23,South,174,2.2,5.4,51,0.00,,---,0.00,VWS V14.01,2013-06-16 00:50:00,
2013-06-15 19:55:00,80.8,60.4,28.26,South,174,2.7,5.4,50,0.00,,---,0.00,VWS V14.01,2013-06-16 00:55:00,
2013-06-15 20:00:00,80.8,59.9,28.26,SSE,155,0.0,0.0,49,0.00,,---,0.00,VWS V14.01,2013-06-16 01:00:00,
2013-06-15 20:05:00,80.6,59.7,28.26,SSE,157,2.7,3.6,49,0.00,,---,0.00,VWS V14.01,2013-06-16 01:05:00,
2013-06-15 20:10:00,80.6,59.1,28.23,SSE,151,0.0,5.8,48,0.00,,---,0.00,VWS V14.01,2013-06-16 01:10:00,
2013-06-15 20:15:00,80.8,58.7,28.23,SSE,164,2.7,5.8,47,0.00,,---,0.00,VWS V14.01,2013-06-16 01:15:00,
2013-06-15 20:20:00,81.0,58.9,28.23,SSE,153,3.1,5.8,47,0.00,,---,0.00,VWS V14.01,2013-06-16 01:20:00,
2013-06-15 20:26:00,81.0,58.9,28.23,SSW,203,0.0,5.8,47,0.00,,---,0.00,VWS V14.01,2013-06-16 01:26:00,
2013-06-15 20:31:00,81.0,58.9,28.23,SSW,200,0.0,5.8,47,0.00,,---,0.00,VWS V14.01,2013-06-16 01:31:00,
2013-06-15 20:36:00,80.8,58.7,28.23,SE,145,3.6,5.8,47,0.00,,---,0.00,VWS V14.01,2013-06-16 01:36:00,
2013-06-15 20:41:00,80.8,58.7,28.23,ESE,113,2.7,5.8,47,0.00,,---,0.00,VWS V14.01,2013-06-16 01:41:00,
2013-06-15 20:46:00,80.6,59.1,28.23,SSE,166,0.0,5.8,48,0.00,,---,0.00,VWS V14.01,2013-06-16 01:46:00,
2013-06-15 20:51:00,80.2,59.4,28.26,SSW,208,2.7,5.8,49,0.00,,---,0.00,VWS V14.01,2013-06-16 01:51:00,
2013-06-15 20:56:00,79.9,59.6,28.26,SSE,152,3.1,5.8,50,0.00,,---,0.00,VWS V14.01,2013-06-16 01:56:00,
2013-06-15 21:01:00,79.7,59.4,28.26,SE,138,3.1,5.8,50,0.00,,---,0.00,VWS V14.01,2013-06-16 02:01:00,
2013-06-15 21:06:00,79.7,58.3,28.26,North,4,0.0,5.8,48,0.00,,---,0.00,VWS V14.01,2013-06-16 02:06:00,
2013-06-15 21:12:00,80.1,58.6,28.26,SW,217,0.0,5.8,48,0.00,,---,0.00,VWS V14.01,2013-06-16 02:12:00,
2013-06-15 21:17:00,80.2,58.8,28.26,SE,145,2.2,5.8,48,0.00,,---,0.00,VWS V14.01,2013-06-16 02:17:00,
2013-06-15 21:22:00,80.4,59.0,28.26,ESE,116,3.6,5.8,48,0.00,,---,0.00,VWS V14.01,2013-06-16 02:22:00,
2013-06-15 21:27:00,80.2,58.8,28.26,SSW,210,0.0,5.8,48,0.00,,---,0.00,VWS V14.01,2013-06-16 02:27:00,
2013-06-15 21:32:00,80.1,58.6,28.26,WSW,243,4.9,5.8,48,0.00,,---,0.00,VWS V14.01,2013-06-16 02:32:00,
2013-06-15 21:37:00,79.5,58.1,28.29,WSW,254,3.6,5.8,48,0.00,,---,0.00,VWS V14.01,2013-06-16 02:37:00,
2013-06-15 21:42:00,78.8,58.0,28.29,WSW,254,0.0,5.8,49,0.00,,---,0.00,VWS V14.01,2013-06-16 02:42:00,
2013-06-15 21:47:00,77.9,57.8,28.29,WSW,243,0.0,5.8,50,0.00,,---,0.00,VWS V14.01,2013-06-16 02:47:00,
2013-06-15 21:52:00,77.2,56.6,28.29,South,177,0.0,5.8,49,0.00,,---,0.00,VWS V14.01,2013-06-16 02:52:00,
2013-06-15 21:57:00,76.8,56.2,28.29,South,177,0.0,5.8,49,0.00,,---,0.00,VWS V14.01,2013-06-16 02:57:00,
2013-06-15 22:03:00,76.5,55.3,28.29,South,177,0.0,0.0,48,0.00,,---,0.00,VWS V14.01,2013-06-16 03:03:00,
2013-06-15 22:08:00,76.1,55.0,28.29,South,177,0.0,0.0,48,0.00,,---,0.00,VWS V14.01,2013-06-16 03:08:00,
2013-06-15 22:13:00,75.9,54.3,28.29,South,177,0.0,0.0,47,0.00,,---,0.00,VWS V14.01,2013-06-16 03:13:00,
2013-06-15 22:18:00,75.6,53.9,28.29,South,177,0.0,0.0,47,0.00,,---,0.00,VWS V14.01,2013-06-16 03:18:00,
2013-06-15 22:23:00,75.4,53.8,28.29,South,177,0.0,0.0,47,0.00,,---,0.00,VWS V14.01,2013-06-16 03:23:00,
2013-06-15 22:28:00,75.0,54.0,28.29,South,177,0.0,0.0,48,0.00,,---,0.00,VWS V14.01,2013-06-16 03:28:00,
2013-06-15 22:33:00,74.8,53.8,28.29,South,177,0.0,0.0,48,0.00,,---,0.00,VWS V14.01,2013-06-16 03:33:00,
2013-06-15 22:38:00,74.5,54.1,28.32,South,177,0.0,0.0,49,0.00,,---,0.00,VWS V14.01,2013-06-16 03:38:00,
2013-06-15 22:43:00,74.3,53.9,28.32,South,177,0.0,0.0,49,0.00,,---,0.00,VWS V14.01,2013-06-16 03:43:00,
2013-06-15 22:49:00,73.9,53.6,28.32,South,177,0.0,0.0,49,0.00,,---,0.00,VWS V14.01,2013-06-16 03:49:00,
2013-06-15 22:54:00,73.8,53.4,28.32,South,177,0.0,0.0,49,0.00,,---,0.00,VWS V14.01,2013-06-16 03:54:00,
2013-06-15 22:59:00,73.6,53.3,28.32,South,177,0.0,0.0,49,0.00,,---,0.00,VWS V14.01,2013-06-16 03:59:00,
2013-06-15 23:01:00,73.4,53.1,28.32,South,177,0.0,0.0,49,0.00,,---,0.00,VWS V14.01,2013-06-16 04:01:00,
2013-06-15 23:02:00,73.4,53.1,28.32,South,177,0.0,0.0,49,0.00,,---,0.00,VWS V14.01,2013-06-16 04:02:00,
2013-06-15 23:07:00,73.2,53.5,28.32,South,177,0.0,0.0,50,0.00,,---,0.00,VWS V14.01,2013-06-16 04:07:00,
2013-06-15 23:12:00,73.0,53.3,28.32,South,177,0.0,0.0,50,0.00,,---,0.00,VWS V14.01,2013-06-16 04:12:00,
2013-06-15 23:17:00,72.9,53.2,28.32,South,177,0.0,0.0,50,0.00,,---,0.00,VWS V14.01,2013-06-16 04:17:00,
2013-06-15 23:23:00,72.7,53.0,28.32,South,177,0.0,0.0,50,0.00,,---,0.00,VWS V14.01,2013-06-16 04:23:00,
2013-06-15 23:28:00,72.5,52.8,28.32,South,177,0.0,0.0,50,0.00,,---,0.00,VWS V14.01,2013-06-16 04:28:00,
2013-06-15 23:33:00,72.5,53.4,28.32,South,177,0.0,0.0,51,0.00,,---,0.00,VWS V14.01,2013-06-16 04:33:00,
2013-06-15 23:38:00,72.3,53.7,28.32,South,177,0.0,0.0,52,0.00,,---,0.00,VWS V14.01,2013-06-16 04:38:00,
2013-06-15 23:43:00,72.1,54.1,28.32,South,177,0.0,0.0,53,0.00,,---,0.00,VWS V14.01,2013-06-16 04:43:00,
2013-06-15 23:48:00,72.0,54.4,28.32,South,177,0.0,0.0,54,0.00,,---,0.00,VWS V14.01,2013-06-16 04:48:00,
2013-06-15 23:53:00,71.8,54.8,28.32,South,177,0.0,0.0,55,0.00,,---,0.00,VWS V14.01,2013-06-16 04:53:00,
2013-06-15 23:58:00,71.6,55.1,28.32,South,177,0.0,0.0,56,0.00,,---,0.00,VWS V14.01,2013-06-16 04:58:00,